[[{"header":{"parameterUnit":"m.s-1","parameterCategory":1,"la1":30.2992,"la2":30.254,"lo1":-89.0895,"lo2":-89.0443,"dy":0.0025,"dx":0.0025,"nx":19,"ny":19,"refTime":"2026-03-21T09:00:00:Z","depth":0,"parameterNumber":2,"parameterNumberName":"U-component_of_WINDS"},"data":[0,0,0,3.7184,3.7189,3.7401,3.7402,3.7675,3.7678,0,0,0,0,0,0,0,0,0,0,0,3.7123,3.7125,3.7184,3.7189,3.7401,3.7402,3.7675,3.7678,0,0,0,0,0,0,0,0,0,0,0,3.7122,3.7124,3.7127,3.719,3.7401,3.7402,3.7674,3.7513,0,0,0,0,0,0,0,0,0,0,3.7307,3.7252,3.7124,3.7127,3.7191,3.7401,3.7402,3.7505,3.7523,3.758,0,3.7631,0,3.7659,3.7696,3.7697,0,0,0,3.7188,3.7238,3.7293,3.7127,3.7193,3.74,3.7305,3.7515,3.7536,3.7604,3.7635,3.7645,3.7663,3.7698,3.7699,3.8028,3.8029,0,0,3.7176,3.7162,3.7279,3.7306,3.7274,3.7298,3.7312,3.7528,3.7561,3.7636,3.7651,3.7668,3.77,3.7702,3.8026,3.8028,0,0,0,3.7143,3.7154,3.7204,3.7295,3.7333,3.7304,3.732,3.7551,3.7569,3.7654,3.7671,3.7701,3.7705,3.8024,3.8027,3.8089,0,0,0,3.7136,3.7135,3.7199,3.7193,3.7329,3.7445,3.7339,3.7554,3.7579,3.767,3.7701,3.7707,3.8023,3.8026,3.8084,3.812,0,0,0,3.7109,3.7132,3.7163,3.7192,3.7282,3.7442,3.7472,3.756,3.7589,3.7697,3.7708,3.8022,3.8025,3.8079,3.8113,3.82,0,0,0,3.7075,3.7218,3.7164,3.7329,3.728,3.7479,3.747,3.762,3.772,3.7703,3.8023,3.8027,3.8077,3.8108,3.8195,3.8269,3.8299,0,0,3.7247,3.7238,3.7337,3.7294,3.7499,3.7448,3.7662,3.7768,3.7793,3.7948,3.7956,3.8085,3.8112,3.8199,3.8479,3.8503,0,0,0,3.7386,3.7456,3.7514,3.7608,3.7692,3.7765,3.784,3.7879,3.8011,3.7869,3.8143,3.8159,3.821,3.8246,3.8267,3.831,3.8043,3.8043,3.8043,3.7609,3.763,3.7793,3.7839,3.7931,3.8005,3.808,3.8145,3.8142,3.8206,3.8251,3.8419,3.846,3.8476,3.8521,3.8295,3.8295,3.8295,3.8295,3.786,3.7961,3.7951,3.8105,3.8126,3.8256,3.8332,3.8325,3.8448,3.8387,3.8434,3.8363,3.8501,3.8541,3.83,3.83,3.8299,3.8298,3.8298,3.8006,3.8058,3.8102,3.8238,3.834,3.8382,3.8499,3.8516,3.8532,3.8578,3.8626,3.8625,3.8623,3.86,3.8601,3.8601,3.8602,3.8602,3.8603,3.8138,3.8186,3.8282,3.8381,3.8442,3.8524,3.8598,3.8658,3.8729,3.8731,3.8732,3.8719,3.8512,3.8457,3.8612,3.861,3.8609,3.8608,3.8608,3.838,3.8327,3.8476,3.8537,3.8652,3.875,3.877,3.889,3.8943,3.8999,3.8977,3.8822,3.8814,3.8798,3.8753,3.8974,3.8974,3.8974,3.8974,3.85,3.8498,3.8651,3.8746,3.8842,3.8873,3.9038,3.9097,3.9149,3.9182,3.9153,3.9096,3.9079,3.908,3.9058,3.9016,3.93,3.93,3.93,3.8648,3.8655,3.8792,3.8842,3.8933,3.901,3.9164,3.9273,3.9322,3.9314,3.9208,3.9194,3.9101,3.9071,3.9057,3.9023,3.8946,0,0]},{"header":{"parameterUnit":"m.s-1","parameterCategory":1,"la1":30.2992,"la2":30.254,"lo1":-89.0895,"lo2":-89.0443,"dy":0.0025,"dx":0.0025,"nx":19,"ny":19,"refTime":"2026-03-21T09:00:00:Z","depth":0,"parameterNumber":3,"parameterNumberName":"V-component_of_WINDS"},"data":[0,0,0,2.2263,2.2265,2.2358,2.2359,2.248,2.2481,0,0,0,0,0,0,0,0,0,0,0,2.2238,2.2239,2.2262,2.2265,2.2358,2.2359,2.248,2.2481,0,0,0,0,0,0,0,0,0,0,0,2.2237,2.2238,2.224,2.2265,2.2358,2.2359,2.248,2.2408,0,0,0,0,0,0,0,0,0,0,2.2317,2.2297,2.2238,2.224,2.2266,2.2358,2.2359,2.2405,2.2412,2.2439,0,2.2465,0,2.2475,2.2489,2.249,0,0,0,2.2263,2.229,2.2313,2.224,2.2267,2.2358,2.2315,2.2409,2.2418,2.2449,2.2466,2.2471,2.2477,2.249,2.2491,2.2653,2.2654,0,0,2.2257,2.2256,2.2307,2.2319,2.2306,2.2313,2.2318,2.2414,2.2432,2.2467,2.2473,2.2479,2.2491,2.2492,2.2653,2.2654,0,0,0,2.2244,2.2252,2.2273,2.2314,2.2331,2.2315,2.2322,2.2428,2.2434,2.2475,2.248,2.2492,2.2493,2.2652,2.2653,2.2694,0,0,0,2.2241,2.2245,2.227,2.227,2.2329,2.2381,2.2333,2.2428,2.2439,2.248,2.2492,2.2495,2.2651,2.2652,2.2691,2.2714,0,0,0,2.2231,2.2243,2.2258,2.227,2.231,2.2379,2.2392,2.243,2.2442,2.249,2.2495,2.265,2.2652,2.2688,2.2709,2.2755,0,0,0,2.2219,2.2294,2.2259,2.2344,2.231,2.2405,2.2391,2.2462,2.2508,2.2493,2.2651,2.2653,2.2687,2.2706,2.2752,2.2794,2.2811,0,0,2.2312,2.2305,2.2355,2.2326,2.2427,2.239,2.2497,2.254,2.2546,2.2617,2.2621,2.2692,2.2709,2.2755,2.2909,2.2923,0,0,0,2.2384,2.242,2.2447,2.2491,2.2526,2.2557,2.2584,2.26,2.266,2.2582,2.2721,2.2732,2.2758,2.2778,2.279,2.2812,2.2662,2.2662,2.2662,2.2513,2.2516,2.2599,2.2613,2.2656,2.2682,2.2716,2.2742,2.2733,2.2765,2.2786,2.288,2.2903,2.2912,2.2935,2.2809,2.2809,2.2809,2.2809,2.2649,2.27,2.2686,2.2761,2.2763,2.2825,2.2853,2.2844,2.2901,2.2865,2.2888,2.2848,2.2927,2.2947,2.2812,2.2812,2.2811,2.2811,2.2811,2.2734,2.2759,2.2777,2.2839,2.2887,2.2898,2.2953,2.2953,2.2954,2.2977,2.2999,2.2998,2.2996,2.2988,2.2988,2.2988,2.2988,2.2989,2.2989,2.2815,2.2834,2.2881,2.2923,2.2951,2.2986,2.3012,2.3039,2.3068,2.3063,2.3063,2.305,2.2934,2.2905,2.2994,2.2993,2.2992,2.2992,2.2992,2.2951,2.292,2.2993,2.302,2.3069,2.3115,2.3114,2.3167,2.3189,2.3216,2.3197,2.3112,2.3104,2.3095,2.307,2.3197,2.3197,2.3197,2.3197,2.3022,2.3018,2.3092,2.3135,2.3177,2.3183,2.3264,2.3284,2.33,2.3313,2.3295,2.3262,2.3253,2.325,2.3238,2.3215,2.3376,2.3376,2.3376,2.3105,2.3105,2.3174,2.319,2.3228,2.3259,2.3334,2.3383,2.3395,2.3383,2.3323,2.3315,2.3263,2.3246,2.3233,2.3214,2.3172,0,0]}]]